Hourly Data Report for July 04, 2021

CLYDE RIVER A
NUNAVUT
Current Station Operator: NAVCAN

70°29'09.000" N
68°31'01.000" W
26.50 m
2400804
71090
YCY

Download Data

Hourly Data (July 2021)
Hourly Data Report for July 4, 2021
TIME
LST
Temp Definition
°C
Dew Point Definition
°C
Rel Hum Definition
%
Precip. Amount Definition
mm

Wind Dir Definition
10's deg

Wind Spd Definition
km/h
Visibility Definition
km
Stn Press Definition
kPa
Hmdx Definition


Wind Chill Definition


Weather Definition


00:00 -0.4 -0.4 100 0.0 5 8 0.6 100.81   -3 Freezing Fog
01:00 -0.4 -0.4 100 0.0 6 9 1.2 100.81   -4 Fog
02:00 -0.2 -0.2 100 0.0 5 9 0.6 100.82   -3 Freezing Fog
03:00 -0.1 -0.1 100 0.0 LegendMM 4 0.2 100.82   -1 Freezing Fog
04:00 0.2 0.2 100 0.0 35 5 0.6 100.82     Fog
05:00 0.5 0.5 100 0.0 34 13 3.2 100.84     Fog
06:00 0.5 0.4 99 0.0 34 15 12.9 100.85     LegendNANA
07:00 0.7 0.4 98 0.0 35 21 14.5 100.88     LegendNANA
08:00 0.5 -0.2 95 0.0 34 22 16.1 100.90     LegendNANA
09:00 1.0 -0.3 91 0.0 35 22 16.1 100.91     LegendNANA
10:00 1.1 0.0 92 0.0 34 22 16.1 100.94     LegendNANA
11:00 1.2 -0.1 91 0.0 35 21 16.1 100.96     LegendNANA
12:00 1.2 0.3 94 0.0 35 18 11.3 100.98     Rain
13:00 1.8 0.9 94 0.0 36 21 8.1 101.00     Rain, Fog
14:00 1.9 0.3 89 0.0 36 21 16.1 101.01     Rain
15:00 2.0 0.0 87 0.0 36 21 16.1 101.02     Rain
16:00 2.1 0.0 86 0.0 36 15 16.1 101.02     LegendNANA
17:00 1.4 -0.3 89 0.0 1 13 16.1 101.04     LegendNANA
18:00 1.5 -0.1 89 0.0 33 13 16.1 101.05     LegendNANA
19:00 1.1 -0.4 90 0.0 35 5 16.1 101.06     LegendNANA
20:00 1.0 -0.6 89 0.0 36 5 16.1 101.05     LegendNANA
21:00 0.9 -0.5 90 0.0 6 5 16.1 101.03     LegendNANA
22:00 -0.2 -0.5 98 0.0 15 13 16.1 100.99   -4 LegendNANA
23:00 -0.4 -0.7 98 0.0 15 9 16.1 100.96   -4 LegendNANA

Notes on Data Quality.

Legend

  • E = Estimated
  • M = Missing
  • NA = Not Available*
  • [empty] = Indicates an unobserved value
Date modified: